Weather History for Chesapeake, VA

Change the Weather History Date:

Sunday, September 2, 2012

  Actual Average (KORF) Record (KORF)
Temperature  
Mean Temperature 82 °F 76 °F  
Max Temperature 91 °F 83 °F 97 °F (1980)
Min Temperature 73 °F 69 °F 55 °F (1948)
Degree Days  
Heating Degree Days 0 0  
Month to date heating degree days 0  
Since 1 July heating degree days 0  
Cooling Degree Days 17 11  
Month to date cooling degree days 22  
Year to date cooling degree days 1357  
Growing Degree Days 32 (Base 50)    
Moisture  
Dew Point 74 °F    
Average Humidity 86    
Maximum Humidity 100    
Minimum Humidity 52    
Precipitation  
Precipitation 0.83 in 0.18 in 1.40 in (1903)
Month to date precipitation 0.36  
Year to date precipitation 32.30  
Snow  
Snow 0.00 in 0.00 in 0.00 in (2002)
Month to date snowfall 0.0  
Since 1 July snowfall 0.0  
Snow Depth -    
Sea Level Pressure  
Sea Level Pressure 30.02 in    
Wind  
Wind Speed 1 mph (SSE)    
Max Wind Speed 16 mph    
Max Gust Speed 20 mph    
Visibility 7 miles    
Events Rain , Thunderstorm    
T = Trace of Precipitation, MM = Missing Value Source: NWS Daily Summary

Daily Weather History Graph

Daily Weather History Graph

Search for Another Location

Airport:

Trip Planner

Search our weather history database for the weather conditions in past years. The results will help you decide how hot, cold, wet, or windy it might be!

Date:

Astronomy

Sep. 02, 2012 Rise Set
Actual Time 6:37 AM EDT 7:31 PM EDT
Civil Twilight 6:11 AM EDT 7:57 PM EDT
Nautical Twilight 5:39 AM EDT 8:28 PM EDT
Astronomical Twilight 5:07 AM EDT 9:00 PM EDT
Moon 8:23 PM EDT (9/2) 8:38 AM EDT (9/2)
Length of Visible Light 13h 46m
Length of Day
12h 53m
Waning Gibbous, 95% of the Moon is Illuminated
Sep 2
Waning Gibbous
Sep 8
Last Quarter
Sep 15
New
Sep 22
First Quarter
Sep 29
Full

Hourly Weather History & Observations

Time (EDT) Temp. Heat Index Dew Point Humidity Pressure Visibility Wind Dir Wind Speed Gust Speed Precip Events Conditions
12:15 AM 78.8 °F - 75.2 °F 89% 30.03 in 10.0 mi Calm Calm - N/A   Unknown
12:35 AM 75.2 °F - 73.4 °F 94% 30.03 in 7.0 mi Calm Calm - N/A   Unknown
12:55 AM 75.2 °F - 73.4 °F 94% 30.04 in 7.0 mi Calm Calm - N/A   Unknown
1:15 AM 75.2 °F - 75.2 °F 100% 30.04 in 7.0 mi Calm Calm - N/A   Unknown
1:35 AM 75.2 °F - 73.4 °F 94% 30.03 in 7.0 mi Calm Calm - N/A   Unknown
1:55 AM 75.2 °F - 73.4 °F 94% 30.03 in 7.0 mi Calm Calm - N/A   Unknown
2:15 AM 75.2 °F - 73.4 °F 94% 30.03 in 5.0 mi Calm Calm - N/A   Mist
2:35 AM 75.2 °F - 73.4 °F 94% 30.02 in 5.0 mi Calm Calm - N/A   Mist
2:55 AM 75.2 °F - 73.4 °F 94% 30.02 in 7.0 mi Calm Calm - N/A   Unknown
3:15 AM 73.4 °F - 73.4 °F 100% 30.02 in 4.0 mi Calm Calm - N/A   Mist
3:35 AM 75.2 °F - 73.4 °F 94% 30.02 in 7.0 mi Calm Calm - N/A   Unknown
3:55 AM 73.4 °F - 73.4 °F 100% 30.02 in 4.0 mi Calm Calm - N/A   Mist
4:15 AM 73.4 °F - 73.4 °F 100% 30.02 in 5.0 mi Calm Calm - N/A   Mist
4:35 AM 73.4 °F - 71.6 °F 94% 30.02 in 2.5 mi Calm Calm - N/A   Mist
4:55 AM 73.4 °F - 73.4 °F 100% 30.01 in 3.0 mi Calm Calm - N/A   Mist
5:15 AM 73.4 °F - 73.4 °F 100% 30.01 in 5.0 mi Calm Calm - N/A   Mist
5:35 AM 73.4 °F - 73.4 °F 100% 30.02 in 7.0 mi Calm Calm - N/A   Unknown
5:55 AM 73.4 °F - 71.6 °F 94% 30.02 in 7.0 mi Calm Calm - N/A   Unknown
6:15 AM 73.4 °F - 73.4 °F 100% 30.03 in 7.0 mi Calm Calm - N/A   Unknown
6:35 AM 73.4 °F - 73.4 °F 100% 30.02 in 7.0 mi Calm Calm - N/A   Unknown
6:55 AM 73.4 °F - 73.4 °F 100% 30.03 in 5.0 mi Calm Calm - N/A   Mist
7:15 AM 73.4 °F - 73.4 °F 100% 30.03 in 4.0 mi Calm Calm - N/A   Mist
7:35 AM 75.2 °F - 73.4 °F 94% 30.03 in 5.0 mi Calm Calm - N/A   Mist
7:55 AM 75.2 °F - 73.4 °F 94% 30.03 in 4.0 mi Calm Calm - N/A   Mist
8:15 AM 75.2 °F - 75.2 °F 100% 30.03 in 3.0 mi Calm Calm - N/A   Mist
8:35 AM 78.8 °F - 75.2 °F 89% 30.03 in 5.0 mi Calm Calm - N/A   Mist
8:55 AM 78.8 °F - 75.2 °F 89% 30.03 in 5.0 mi Calm Calm - N/A   Mist
9:15 AM 80.6 °F 87.1 °F 77.0 °F 89% 30.03 in 7.0 mi Calm Calm - N/A   Unknown
9:35 AM 82.4 °F 90.9 °F 77.0 °F 84% 30.03 in 7.0 mi Calm Calm - N/A   Unknown
9:55 AM 82.4 °F 90.9 °F 77.0 °F 84% 30.02 in 5.0 mi Calm Calm - N/A   Haze
10:15 AM 82.4 °F 90.9 °F 77.0 °F 84% 30.02 in 7.0 mi Calm Calm - N/A   Unknown
10:35 AM 84.2 °F 94.1 °F 77.0 °F 79% 30.02 in 7.0 mi South 4.6 mph - N/A   Unknown
10:55 AM 84.2 °F 92.3 °F 75.2 °F 74% 30.02 in 5.0 mi Calm Calm - N/A   Haze
11:15 AM 86.0 °F 95.1 °F 75.2 °F 70% 30.03 in 7.0 mi Calm Calm - N/A   Unknown
11:35 AM 87.8 °F 97.6 °F 75.2 °F 66% 30.03 in 10.0 mi Calm Calm - N/A   Unknown
11:55 AM 87.8 °F 95.6 °F 73.4 °F 62% 30.03 in 7.0 mi Calm Calm - N/A   Unknown
12:15 PM 87.8 °F 95.6 °F 73.4 °F 62% 30.03 in 7.0 mi Calm Calm - N/A   Unknown
12:35 PM 87.8 °F 97.6 °F 75.2 °F 66% 30.03 in 10.0 mi Calm Calm - N/A   Unknown
12:55 PM 87.8 °F 97.6 °F 75.2 °F 66% 30.03 in 5.0 mi Calm Calm - N/A   Haze
1:15 PM 87.8 °F 97.6 °F 75.2 °F 66% 30.03 in 10.0 mi Calm Calm - N/A   Unknown
1:35 PM 87.8 °F 95.6 °F 73.4 °F 62% 30.02 in 10.0 mi Calm Calm - N/A   Unknown
1:55 PM 89.6 °F 99.8 °F 75.2 °F 62% 30.01 in 7.0 mi ESE 4.6 mph - N/A   Unknown
2:15 PM 89.6 °F 96.2 °F 71.6 °F 55% 30.00 in 10.0 mi Calm Calm - N/A   Unknown
2:35 PM 89.6 °F 96.2 °F 71.6 °F 55% 29.99 in 7.0 mi Calm Calm - N/A   Unknown
2:55 PM 89.6 °F 98.2 °F 73.4 °F 59% 29.98 in 7.0 mi ESE 3.5 mph - N/A   Unknown
3:15 PM 89.6 °F 96.2 °F 71.6 °F 55% 29.98 in 7.0 mi Calm Calm - N/A   Unknown
3:35 PM 91.4 °F 98.4 °F 71.6 °F 52% 29.98 in 7.0 mi East 4.6 mph - N/A   Unknown
3:55 PM 91.4 °F 100.1 °F 73.4 °F 55% 29.97 in 7.0 mi ESE 3.5 mph - N/A   Unknown
4:15 PM 91.4 °F 100.1 °F 73.4 °F 55% 29.96 in 10.0 mi ESE 5.8 mph - N/A   Unknown
4:35 PM 89.6 °F 98.2 °F 73.4 °F 59% 29.96 in 7.0 mi East 4.6 mph - N/A   Unknown
4:55 PM 87.8 °F 97.6 °F 75.2 °F 66% 29.96 in 7.0 mi SE 4.6 mph - N/A   Unknown
5:15 PM 84.2 °F 90.9 °F 73.4 °F 70% 29.98 in 7.0 mi South 16.1 mph 19.6 mph N/A Thunderstorm Thunderstorm
5:35 PM 75.2 °F - 73.4 °F 94% 30.00 in 2.5 mi SW 8.1 mph 11.5 mph 0.46 in Rain Heavy Rain
5:55 PM 75.2 °F - 73.4 °F 94% 30.01 in 2.5 mi NNE 4.6 mph - 0.11 in Rain , Thunderstorm Heavy Thunderstorms and Rain
6:15 PM 75.2 °F - 73.4 °F 94% 30.00 in 7.0 mi NW 3.5 mph - 0.18 in Rain , Thunderstorm Heavy Thunderstorms and Rain
6:35 PM 75.2 °F - 73.4 °F 94% 30.01 in 10.0 mi Calm Calm - 0.21 in Rain Rain
6:55 PM 75.2 °F - 73.4 °F 94% 30.01 in 7.0 mi Calm Calm - N/A Rain , Thunderstorm Light Thunderstorms and Rain
7:15 PM 75.2 °F - 73.4 °F 94% 30.03 in 7.0 mi Calm Calm - N/A Rain , Thunderstorm Light Thunderstorms and Rain
7:35 PM 75.2 °F - 75.2 °F 100% 30.04 in 7.0 mi Calm Calm - 0.02 in Rain , Thunderstorm Light Thunderstorms and Rain
7:55 PM 75.2 °F - 75.2 °F 100% 30.05 in 10.0 mi West 6.9 mph - N/A Rain , Thunderstorm Light Thunderstorms and Rain
8:15 PM 75.2 °F - 73.4 °F 94% 30.05 in 10.0 mi West 6.9 mph - 0.02 in Rain Rain
8:35 PM 75.2 °F - 73.4 °F 94% 30.05 in 10.0 mi NW 4.6 mph - 0.05 in Rain Light Rain
8:55 PM 75.2 °F - 73.4 °F 94% 30.04 in 10.0 mi West 3.5 mph - 0.02 in Rain Rain
9:15 PM 73.4 °F - 71.6 °F 94% 30.03 in 10.0 mi Calm Calm - 0.06 in Rain Rain
9:35 PM 73.4 °F - 71.6 °F 94% 30.01 in 10.0 mi Calm Calm - 0.08 in Rain Light Rain
9:55 PM 73.4 °F - 71.6 °F 94% 30.00 in 10.0 mi Calm Calm - 0.01 in Rain Light Rain
10:15 PM 73.4 °F - 73.4 °F 100% 29.98 in 10.0 mi Calm Calm - 0.01 in Rain Light Rain
10:35 PM 73.4 °F - 73.4 °F 100% 29.98 in 10.0 mi Calm Calm - 0.01 in   Unknown
10:55 PM 73.4 °F - 73.4 °F 100% 29.99 in 10.0 mi SSW 3.5 mph - N/A   Unknown
11:15 PM 73.4 °F - 71.6 °F 94% 30.00 in 10.0 mi SSW 4.6 mph - N/A   Unknown
11:35 PM 73.4 °F - 71.6 °F 94% 30.01 in 7.0 mi Calm Calm - N/A   Unknown
11:55 PM 73.4 °F - 73.4 °F 100% 30.03 in 10.0 mi Calm Calm - N/A   Unknown